SL-16 DEB, 28437

Orbit data source: Space-Track

SL-16 DEB, 28437 is space debris in SSO originally from a launch on Mon, 10 Dec 2001 UTC launched from the Tyuratam Missile And Space Complex (TTMTR). Debris objects in space refer to the collection of defunct objects orbiting the Earth. Examples of debris include non-operational satellites, rocket bodies, and fragments generated from explosions, collisions, or faulty payload assembly.

Loading next visibility...
Identifier
28437, 2001-056L
Orbit
SSO
Country
Flag of CISCIS
Related business
Manufacturer
Yuzhnoe
Mission
Spacecraft
Bus & Motor
SEP MOTOR COVER, Unknown motor
Mass
~1 kg wet, ~1 kg dry
Launch date (UTC)
2001-12-10 (24 years ago)
Launch vehicle
Unknown
Launch site
Tyuratam Missile And Space Complex (TTMTR)
Object type
Payload
Rocket body
Debris
Shape & HBR
Cone, 0.5 m
Radar Cross Section
0.635 m², Medium (>0.1 m² and < 1m²)

Expand to show TLE details & history
Last TLE update: 15 hours ago

TLE from 15 hours ago
0 SL-16 DEB
1 28437U 01056L   26150.21127506 -.00000041  00000-0  55839-6 0  9996
2 28437  99.4777  62.3229 0200653 258.0946 260.3332 13.27631838184883
Epoch: 2026-05-30T05:04Z
TLE epoch observation values (Epoch: 2026-05-30T05:04:14.165Z)
Latitude
23.50478°
Longitude
-77.32417°
Altitude
1,186.744 km
Speed
7.249 km/s
True Right ascension
16h 25m 51s
True Declination
23° 23' 11"
Sunlit
Object was in full shadow at epoch
Visualization orbit readout
Latitude
Unknown
Longitude
Unknown
Altitude
Unknown
Speed
Unknown
Apparent Right ascension
Unknown
Apparent Declination
Unknown
Sunlit
N/A
Visualization observer readout
Local Sidereal Time
05:29:18
Azimuth
Unknown
Elevation
Unknown
Doppler factor
Unknown
Orbital elements
Apogee altitude
1,304.143 km
Perigee altitude
1,001.912 km
Semi-major axis
7,531.165 km
Eccentricity
0.02007
Inclination
99.4777°
RAAN
62.3229°
Arg. of periapsis
258.0946°
True anomaly
258.07663°
Mean anomaly
260.3332°
Eccentric anomaly
259.20389°
Mean motion
3.32086 °/min
Orbital period
108.41 mins
BSTAR
5.5839e-7
Loading maneuver chart data...
Computing Atmospheric mass density...
Loading historical data...
Loading historical data...
Loading historical data...
Loading historical data...
Loading historical data...
Loading historical data...
Loading historical data...

Documentation

Showing up to 5 results
|